Regional Weather Roundup
Issued by NWS

Home | Current Version | Previous Version | Text Only | Print | Product List | Glossary Off
Versions: 1 2 3 4 5 6 7 8 9 10 11 12 13 14 15 16 17 18 19 20 21 22 23 24 25 26 27 28 29 30 31 32 33 34 35 36 37 38 39 40 41 42 43 44 45 46 47 48 49 50

000
ASUS43 KLOT 220010
RWRIL

ILLINOIS REGIONAL WEATHER ROUNDUP
NATIONAL WEATHER SERVICE CHICAGO/ROMEOVILLE IL
600 PM CST SUN DEC 21 2014

NOTE: "FAIR" INDICATES FEW OR NO CLOUDS BELOW 12,000 FEET WITH NO
SIGNIFICANT WEATHER AND/OR OBSTRUCTIONS TO VISIBILITY.

* THESE STATIONS ARE NOT UNDER NWS QUALITY CONTROL. THEY ALSO MAY NOT
  REPORT WEATHER SUCH AS PRECIPITATION OR FOG.

ILZ001-002-007-009-015-016-024-220100-
NORTHWEST ILLINOIS

CITY           SKY/WX    TMP DP  RH WIND       PRES   REMARKS
MOLINE         CLOUDY    37  31  78 SE10      29.96F WCI  30
6HR MIN TEMP:  37; 6HR MAX TEMP:  41;

STERLING*      CLOUDY    36  28  75 SE9G17    30.00F WCI  29
SAVANNA*       CLOUDY    37  32  83 SE12      29.99R WCI  29
$$

ILZ003-004-008-010-011-017-018-220100-
NORTH CENTRAL ILLINOIS

CITY           SKY/WX    TMP DP  RH WIND       PRES   REMARKS
ROCKFORD       CLOUDY    36  30  79 S16       30.05S WCI  26
6HR MIN TEMP:  36; 6HR MAX TEMP:  37;

FREEPORT*      CLOUDY    35  31  85 SE17      30.00F WCI  24
ROCHELLE*      CLOUDY    34  31  88 SE15      30.04S WCI  24
DE KALB*       CLOUDY    34  30  86 S10       30.05F WCI  26
PERU*          CLOUDY    37  32  82 SE15      30.04F WCI  27
$$

ILZ005-006-012>014-019>023-220100-
NORTHEAST ILLINOIS

CITY           SKY/WX    TMP DP  RH WIND       PRES   REMARKS
CHICAGO-OHARE  CLOUDY    35  28  75 S10       30.08S WCI  27
6HR MIN TEMP:  34; 6HR MAX TEMP:  36;

CHICAGO-MIDWAY CLOUDY    37  30  75 S8        30.09S WCI  31
6HR MIN TEMP:  36; 6HR MAX TEMP:  38;

AURORA         CLOUDY    37  29  72 SE9       30.07S WCI  30
6HR MIN TEMP:  36; 6HR MAX TEMP:  39;

LANSING*       CLOUDY    36  30  79 SE5       30.11S WCI  32
JOLIET*        CLOUDY    36  30  80 SE6       30.09S WCI  31
WAUKEGAN       CLOUDY    35  28  75 S12       30.07S WCI  27
6HR MIN TEMP:  35; 6HR MAX TEMP:  37;

DUPAGE AIRPORT CLOUDY    36  30  79 S14       30.07R WCI  27
6HR MIN TEMP:  35; 6HR MAX TEMP:  38;

KANKAKEE*      CLOUDY    35  31  85 SE3       30.11R
WHEELING       CLOUDY    35  28  75 S12       30.10R WCI  27
6HR MIN TEMP:  35; 6HR MAX TEMP:  37;

MORRIS*        CLOUDY    36  32  86 SE9       30.07F WCI  29
ROMEOVILLE*    CLOUDY    35  30  82 S9        30.08F WCI  28
NORTHERLY ISL    N/A     36  29  76 S9          N/A  WCI  29
$$

LMZ740>746-220100-
SOUTHERN LAKE MICHIGAN

STATION/POSITION SKY/WX   TEMP    WIND        PRES    VSBY  WAVE
                          AIR SEA DIR/SP/G                  HT/PER
                          (F)     (DEG/KT/KT) (MB)    (MI)  (FT/S)
WAUKEGAN HARBOR            35     160/ 16/ 18   N/A
HARRISON CRIB              36     160/ 14/ 17   N/A
BURNHAM HARBOR             36     150/  7/ 11   N/A
CALUMET HARBOR             36     150/  6/  9 1018.1S
$$

ILZ025>027-034>036-040-047-049-050-058-095>099-220100-
WEST-CENTRAL ILLINOIS

CITY           SKY/WX    TMP DP  RH WIND       PRES   REMARKS
QUINCY         CLOUDY    41  33  73 SE14      29.95S
GALESBURG*     CLOUDY    36  32  85 SE9G17    29.97F WCI  29
MACOMB*        CLOUDY    37  34  87 SE14      30.00S WCI  29
JACKSONVILLE*  CLOUDY    40  33  76 SE13      30.01S
PITTSFIELD*    CLOUDY    40  34  79 SE12      29.99S
$$

ILZ028>032-037-038-041>044-048-051>054-059>061-220100-
CENTRAL ILLINOIS

CITY           SKY/WX    TMP DP  RH WIND       PRES   REMARKS
PONTIAC        CLOUDY    36  32  87 SE9       30.07F WCI  29
BLOOMINGTON    CLOUDY    35  32  89 SE13      30.05F WCI  26
DECATUR        PTCLDY    35  29  78 SE12      30.06F WCI  27
PEORIA         CLOUDY    37  30  75 S9        30.03S WCI  30
6HR MIN TEMP:  37; 6HR MAX TEMP:  40;

LACON*         PTCLDY    34  29  82 SE9G16    30.03S WCI  27
LINCOLN*       PTCLDY    36  32  87 SE8       30.04F WCI  29
SPRINGFIELD    MOCLDY    38  31  76 SE12      30.03S WCI  30
6HR MIN TEMP:  37; 6HR MAX TEMP:  40;

TAYLORVILLE    CLOUDY    36  30  80 SE8       30.04S WCI  29
$$

ILZ033-039-045-046-055>057-062-063-220100-
EAST-CENTRAL ILLINOIS

CITY           SKY/WX    TMP DP  RH WIND       PRES   REMARKS
CHAMPAIGN      PTCLDY    32  28  85 SE8       30.08S WCI  25
DANVILLE*      CLEAR     33  29  86 SE5       30.07S WCI  28
RANTOUL*       CLOUDY    33  31  90 SE6       30.08F WCI  28
MATTOON        PTCLDY    33  27  78 SE8       30.07F WCI  26
PARIS*         CLEAR     33  31  90 SE3       30.10S
$$

ILZ079-100>102-220100-
SOUTHWEST ILLINOIS

CITY           SKY/WX    TMP DP  RH WIND       PRES   REMARKS
ALTON          CLOUDY    41  30  65 SE12      30.03S
BELLEVILLE     CLOUDY    41  33  72 E6        30.03S
CAHOKIA*       CLOUDY    42  32  67 SE9       30.02F
SPARTA*        CLOUDY    42  32  69 SE7       30.06R
$$

ILZ064>066-069>071-074>076-080>082-084>086-088>090-092>094-220100-
SOUTH-CENTRAL ILLINOIS

CITY           SKY/WX    TMP DP  RH WIND       PRES   REMARKS
CARBONDALE     PTCLDY    38  29  70 CALM      30.06S
6HR MIN TEMP:  37; 6HR MAX TEMP:  47;

CAIRO*         CLEAR     39  32  75 CALM      30.06R
EFFINGHAM*     PTCLDY    34  28  76 E7        30.09F WCI  28
MARION         PTCLDY    41  32  70 E9        30.06F
MT. VERNON     PTCLDY    36  27  69 E3        30.08S
CENTRALIA*     PTCLDY    38  29  72 SE6       30.06S WCI  33
SALEM*         MOCLDY    41  31  67 SE5       30.07F
METROPOLIS*    CLEAR     37  32  80 E3        30.05F
$$

ILZ067-068-072-073-078-083-087-091-220100-
SOUTHEAST ILLINOIS

CITY           SKY/WX    TMP DP  RH WIND       PRES   REMARKS
LAWRENCEVILLE  CLEAR     32  28  85 E3        30.12R FOG
FLORA*         CLEAR     35  30  82 E7        30.09F WCI  29
FAIRFIELD*     CLEAR     34  28  79 E6        30.08F WCI  29
HARRISBURG*    CLEAR     38  31  77 E3        30.09S
ROBINSON*      CLEAR     32  29  90 CALM      30.12S
CARMI*         CLEAR     34  30  85 E8        30.08F WCI  27
$$

ABBREVIATIONS USED IN REMARKS
   TC - TEMPERATURE IN CELSIUS
  WCI - WIND CHILL INDEX
   HX - HEAT INDEX
  VSB - VISIBILITY
$$




USA.gov is the U.S. government's official web portal to all federal, state and local government web resources and services.